GW5177 Weather Reports


time (UTC)temp
C
wind
direction
speed
KPH
gust
KPH
rain 1hr
cm
rain 24hr
cm
rain mn
cm
humidity
%
barometer
mb
20260503005838 7 223 0.0 0.0 0.00 0.00 0.00 68 1018.3
20260503005336 7 223 0.0 0.0 0.00 0.00 0.00 67 1018.5
20260503004832 7 223 0.0 0.0 0.00 0.00 0.00 66 1018.5
20260503004330 7 223 0.0 0.0 0.00 0.00 0.00 64 1018.2
20260503003827 8 223 0.0 0.0 0.00 0.00 0.00 62 1018.3
20260503003324 8 223 0.0 0.0 0.00 0.00 0.00 60 1018.1
20260503002821 8 223 0.0 0.0 0.00 0.00 0.00 58 1018.1
20260503002318 9 223 0.0 0.0 0.00 0.00 0.00 56 1017.9
20260503001814 10 223 0.0 0.0 0.00 0.00 0.00 55 1017.9
20260503001311 10 223 0.0 1.6 0.00 0.00 0.00 51 1017.9
20260503000808 10 226 3.2 3.2 0.00 0.00 0.00 50 1017.9
20260503000306 10 230 0.0 0.0 0.00 0.00 0.00 53 1017.6
20260502235802 10 230 0.0 1.6 0.00 0.00 0.00 50 1017.9
20260502235300 10 235 4.8 6.4 0.00 0.00 0.00 49 1017.7
20260502234756 11 227 1.6 3.2 0.00 0.00 0.00 49 1017.7
20260502234253 11 122 0.0 0.0 0.00 0.00 0.00 52 1017.7
20260502233749 11 113 0.0 0.0 0.00 0.00 0.00 54 1017.7
20260502233247 11 113 0.0 0.0 0.00 0.00 0.00 53 1017.5
20260502232742 11 122 0.0 0.0 0.00 0.00 0.00 51 1017.4
20260502232239 11 113 1.6 1.6 0.00 0.00 0.00 48 1017.3
20260502231736 11 223 0.0 1.6 0.00 0.00 0.00 48 1017.5
20260502231234 11 220 0.0 0.0 0.00 0.00 0.00 51 1017.4
20260502230732 11 220 0.0 0.0 0.00 0.00 0.00 49 1017.3
20260502230230 12 127 0.0 0.0 0.00 0.00 0.00 49 1017.3
20260502225726 12 103 0.0 0.0 0.00 0.00 0.00 47 1017.3
20260502225223 12 140 0.0 0.0 0.00 0.00 0.00 45 1017.4
20260502224719 12 194 0.0 0.0 0.00 0.00 0.00 46 1017.0
20260502224216 12 256 3.2 4.8 0.00 0.00 0.00 44 1017.3
20260502223714 12 253 0.0 3.2 0.00 0.00 0.00 43 1017.1
20260502223212 12 250 1.6 4.8 0.00 0.00 0.00 44 1017.2
20260502222709 12 271 0.0 3.2 0.00 0.00 0.00 43 1017.2
20260502222206 12 184 0.0 3.2 0.00 0.00 0.00 42 1017.3
20260502221702 13 265 3.2 11.3 0.00 0.00 0.00 40 1017.2
20260502221159 13 280 0.0 3.2 0.00 0.00 0.00 40 1017.2
20260502220655 14 261 3.2 4.8 0.00 0.00 0.00 40 1017.1
20260502220151 15 237 0.0 9.7 0.00 0.00 0.00 43 1017.0
20260502215648 15 7 0.0 1.6 0.00 0.00 0.00 41 1017.0
20260502215145 13 185 1.6 3.2 0.00 0.00 0.00 42 1017.0
20260502214642 13 150 1.6 6.4 0.00 0.00 0.00 43 1016.9
20260502214139 16 260 3.2 4.8 0.00 0.00 0.00 39 1016.8
20260502213637 15 118 1.6 1.6 0.00 0.00 0.00 42 1016.8
20260502213134 13 173 1.6 3.2 0.00 0.00 0.00 42 1016.8
20260502212633 12 247 3.2 3.2 0.00 0.00 0.00 45 1016.9
20260502212125 12 238 0.0 1.6 0.00 0.00 0.00 45 1017.0
20260502211620 12 214 1.6 3.2 0.00 0.00 0.00 45 1017.0
20260502211117 13 253 0.0 0.0 0.00 0.00 0.00 44 1016.9
20260502210615 13 293 1.6 4.8 0.00 0.00 0.00 47 1016.8
20260502210111 16 225 0.0 3.2 0.00 0.00 0.00 42 1016.8
20260502205608 17 139 0.0 3.2 0.00 0.00 0.00 45 1016.8
20260502205105 16 244 1.6 6.4 0.00 0.00 0.00 40 1017.0
20260502204601 13 227 0.0 3.2 0.00 0.00 0.00 49 1016.8
20260502204059 12 268 1.6 4.8 0.00 0.00 0.00 44 1016.9
20260502203556 13 244 0.0 1.6 0.00 0.00 0.00 47 1017.0
20260502203054 13 241 0.0 3.2 0.00 0.00 0.00 43 1017.0
20260502202549 12 234 3.2 6.4 0.00 0.00 0.00 44 1017.2
20260502202048 12 55 1.6 3.2 0.00 0.00 0.00 46 1017.0
20260502201543 12 187 0.0 1.6 0.00 0.00 0.00 47 1017.2
20260502201040 13 251 1.6 3.2 0.00 0.00 0.00 47 1017.1
20260502200536 12 263 1.6 4.8 0.00 0.00 0.00 47 1017.2
20260502200034 12 253 1.6 3.2 0.00 0.00 0.00 47 1017.3
20260502195531 12 267 4.8 4.8 0.00 0.00 0.00 43 1017.3
20260502195027 12 188 1.6 1.6 0.00 0.00 0.00 44 1017.2
20260502194524 12 259 0.0 4.8 0.00 0.00 0.00 47 1017.4
20260502194020 12 219 1.6 4.8 0.00 0.00 0.00 44 1017.5
20260502193518 13 43 0.0 1.6 0.00 0.00 0.00 50 1017.2
20260502193014 13 162 1.6 6.4 0.00 0.00 0.00 50 1017.4
20260502192510 13 118 1.6 3.2 0.00 0.00 0.00 45 1017.5
20260502192008 14 249 1.6 4.8 0.00 0.00 0.00 43 1017.7
20260502191504 13 94 0.0 1.6 0.00 0.00 0.00 53 1017.6
20260502191002 12 150 1.6 6.4 0.00 0.00 0.00 48 1017.9
20260502190459 12 132 1.6 4.8 0.00 0.00 0.00 46 1017.9
20260502185955 12 246 1.6 6.4 0.00 0.00 0.00 47 1017.9
20260502185451 12 173 1.6 6.4 0.00 0.00 0.00 47 1017.9
20260502184948 12 100 1.6 9.7 0.00 0.00 0.00 47 1017.8
20260502184443 13 262 1.6 3.2 0.00 0.00 0.00 46 1017.7
20260502183940 14 197 0.0 1.6 0.00 0.00 0.00 45 1017.7
20260502183436 13 300 0.0 3.2 0.00 0.00 0.00 50 1017.8
20260502182931 12 151 0.0 3.2 0.00 0.00 0.00 47 1017.9
20260502182427 12 58 0.0 0.0 0.00 0.00 0.00 47 1017.9
20260502181924 12 244 0.0 1.6 0.00 0.00 0.00 46 1017.9
20260502181422 12 176 0.0 3.2 0.00 0.00 0.00 47 1018.0
20260502180920 12 355 0.0 1.6 0.00 0.00 0.00 48 1018.1
20260502180417 12 302 0.0 0.0 0.00 0.00 0.00 47 1018.1
20260502170336 13 248 6.4 6.4 0.00 0.00 0.00 44 1018.3
20260502164323 11 229 4.8 6.4 0.00 0.00 0.00 46 1018.5
20260502163819 12 177 0.0 1.6 0.00 0.00 0.00 50 1018.6
20260502163316 12 177 0.0 0.0 0.00 0.00 0.00 48 1018.5
20260502162813 13 44 0.0 1.6 0.00 0.00 0.00 46 1018.5
20260502162310 15 181 3.2 4.8 0.00 0.00 0.00 42 1018.7
20260502161807 12 41 0.0 3.2 0.00 0.00 0.00 58 1018.7
20260502161303 11 279 1.6 4.8 0.00 0.00 0.00 49 1018.9
20260502160801 12 284 3.2 9.7 0.00 0.00 0.00 48 1018.7
20260502160300 12 239 0.0 6.4 0.00 0.00 0.00 46 1018.5
20260502152229 12 247 3.2 3.2 0.00 0.00 0.00 50 1019.0
20260502151727 12 190 4.8 9.7 0.00 0.00 0.00 46 1018.9
20260502151223 11 244 3.2 3.2 0.00 0.00 0.00 49 1018.8
20260502150721 11 236 1.6 3.2 0.00 0.00 0.00 51 1018.9
20260502150218 11 248 1.6 3.2 0.00 0.00 0.00 57 1018.9
20260502130606 8 130 0.0 0.0 0.00 0.00 0.00 82 1019.0
20260502130104 8 252 0.0 1.6 0.00 0.00 0.00 85 1018.9
20260502123549 6 93 0.0 0.0 0.00 0.00 0.00 99 1018.8
20260502123045 5 97 0.0 0.0 0.00 0.00 0.00 99 1019.0
20260502122542 5 105 0.0 0.0 0.00 0.00 0.00 99 1018.7
20260502122040 4 105 0.0 0.0 0.00 0.00 0.00 99 1018.6
20260502121537 4 106 0.0 0.0 0.00 0.00 0.00 99 1018.7
20260502121034 4 118 0.0 0.0 0.00 0.00 0.00 99 1018.9
20260502120530 3 120 0.0 0.0 0.00 0.00 0.00 99 1018.9
20260502115525 1 120 0.0 0.0 0.00 0.00 0.00 99 1018.6
20260502115021 1 120 0.0 0.0 0.00 0.00 0.00 99 1018.5
20260502114518 1 120 0.0 0.0 0.00 0.00 0.00 99 1018.6
20260502114015 1 120 0.0 0.0 0.00 0.00 0.00 99 1018.5
20260502113512 0 120 0.0 0.0 0.00 0.00 0.00 99 1018.5
20260502113011 0 120 0.0 0.0 0.00 0.00 0.00 99 1018.5
20260502112508 0 120 0.0 0.0 0.00 0.00 0.00 99 1018.7
20260502112006 0 120 0.0 0.0 0.00 0.00 0.00 99 1018.5
20260502111503 0 120 0.0 0.0 0.00 0.00 0.00 99 1018.3
20260502111000 0 120 0.0 0.0 0.00 0.00 0.00 99 1018.3
20260502110457 0 120 0.0 0.0 0.00 0.00 0.00 99 1018.3
20260502105955 0 120 0.0 0.0 0.00 0.00 0.00 99 1018.3
20260502105452 0 120 0.0 0.0 0.00 0.00 0.00 99 1018.2
20260502104950 0 120 0.0 0.0 0.00 0.00 0.00 99 1018.1
20260502104447 0 109 0.0 0.0 0.00 0.00 0.00 99 1018.0
20260502103944 0 109 0.0 0.0 0.00 0.00 0.00 99 1018.0
20260502103441 0 109 0.0 0.0 0.00 0.00 0.00 99 1017.8
20260502102938 0 109 0.0 0.0 0.00 0.00 0.00 99 1018.2
20260502102435 0 109 0.0 0.0 0.00 0.00 0.00 99 1018.2
20260502101932 0 109 0.0 0.0 0.00 0.00 0.00 99 1018.3
20260502101431 0 111 0.0 0.0 0.00 0.00 0.00 99 1018.7
20260502100928 0 109 0.0 0.0 0.00 0.00 0.00 99 1018.6
20260502100427 0 109 0.0 0.0 0.00 0.00 0.00 99 1018.5
20260502091401 0 109 0.0 0.0 0.00 0.00 0.00 99 1018.7
20260502090859 0 109 0.0 0.0 0.00 0.00 0.00 99 1018.9
20260502090355 0 111 0.0 0.0 0.00 0.00 0.00 99 1018.7
20260502071250 0 109 0.0 0.0 0.00 0.00 0.00 99 1018.3
20260502070749 0 111 0.0 0.0 0.00 0.00 0.00 99 1018.6
20260502070246 0 111 0.0 0.0 0.00 0.00 0.00 99 1018.6
20260502065744 1 109 0.0 0.0 0.00 0.00 0.00 99 1018.7
20260502065242 0 109 0.0 0.0 0.00 0.00 0.00 99 1018.7
20260502064740 0 111 0.0 0.0 0.00 0.00 0.00 99 1018.6
20260502064238 1 111 0.0 0.0 0.00 0.00 0.00 99 1018.7
20260502063735 1 111 0.0 0.0 0.00 0.00 0.00 99 1018.6
20260502063233 1 109 0.0 0.0 0.00 0.00 0.00 99 1018.7
20260502062730 1 111 0.0 0.0 0.00 0.00 0.00 99 1018.9
20260502062227 1 111 0.0 0.0 0.00 0.00 0.00 99 1018.8
20260502061726 1 109 0.0 0.0 0.00 0.00 0.00 99 1019.0
20260502061223 1 109 0.0 0.0 0.00 0.00 0.00 99 1019.0
20260502060718 1 109 0.0 0.0 0.00 0.00 0.00 99 1019.2
20260502060214 1 112 0.0 0.0 0.00 0.00 0.00 99 1019.1
20260502055712 1 109 0.0 0.0 0.00 0.00 0.00 99 1019.1
20260502055210 1 109 0.0 0.0 0.00 0.00 0.00 99 1019.0
20260502054709 1 109 0.0 0.0 0.00 0.00 0.00 99 1019.1
20260502054206 1 109 0.0 0.0 0.00 0.00 0.00 99 1019.3
20260502053703 2 109 0.0 0.0 0.00 0.00 0.00 99 1019.3
20260502053200 2 109 0.0 0.0 0.00 0.00 0.00 99 1019.2
20260502052658 2 109 0.0 0.0 0.00 0.00 0.00 98 1019.4
20260502052156 2 112 0.0 0.0 0.00 0.00 0.00 98 1019.3
20260502051654 2 109 0.0 0.0 0.00 0.00 0.00 98 1019.2
20260502051152 2 112 0.0 0.0 0.00 0.00 0.00 98 1019.3
20260502050648 2 109 0.0 0.0 0.00 0.00 0.00 98 1019.3
20260502050145 2 112 0.0 0.0 0.00 0.00 0.00 98 1019.4
20260502045641 2 109 0.0 0.0 0.00 0.00 0.00 98 1019.3
20260502045139 2 109 0.0 0.0 0.00 0.00 0.00 98 1019.3
20260502044635 2 109 0.0 0.0 0.00 0.00 0.00 97 1019.2
20260502044131 2 109 0.0 0.0 0.00 0.00 0.00 97 1019.7
20260502043630 2 109 0.0 0.0 0.00 0.00 0.00 97 1019.4
20260502043127 2 109 0.0 0.0 0.00 0.00 0.00 97 1019.6
20260502042626 2 112 0.0 0.0 0.00 0.00 0.00 97 1019.6
20260502042123 2 109 0.0 0.0 0.00 0.00 0.00 96 1019.3
20260502041621 3 109 0.0 0.0 0.00 0.00 0.00 96 1019.3
20260502041118 3 109 0.0 0.0 0.00 0.00 0.00 96 1019.3
20260502040615 3 109 0.0 0.0 0.00 0.00 0.00 95 1019.2
20260502040112 3 109 0.0 0.0 0.00 0.00 0.00 95 1019.4
20260502035608 3 109 0.0 0.0 0.00 0.00 0.00 94 1019.4
20260502035105 3 109 0.0 0.0 0.00 0.00 0.00 94 1019.3
20260502034603 3 109 0.0 0.0 0.00 0.00 0.00 92 1019.2
20260502034101 3 109 0.0 0.0 0.00 0.00 0.00 92 1019.2
20260502033559 4 109 0.0 0.0 0.00 0.00 0.00 92 1019.3
20260502033056 4 109 0.0 0.0 0.00 0.00 0.00 92 1019.3
20260502032552 5 110 0.0 0.0 0.00 0.00 0.00 91 1019.2
20260502032049 5 110 0.0 0.0 0.00 0.00 0.00 90 1019.2
20260502031547 5 110 0.0 0.0 0.00 0.00 0.00 90 1019.3
20260502031044 5 110 0.0 0.0 0.00 0.00 0.00 89 1019.3
20260502030543 5 110 0.0 0.0 0.00 0.00 0.00 88 1019.4
20260502030040 5 110 0.0 0.0 0.00 0.00 0.00 87 1019.3
20260502025538 6 110 0.0 0.0 0.00 0.00 0.00 87 1019.4
20260502025036 6 110 0.0 0.0 0.00 0.00 0.00 85 1019.3
20260502024533 6 110 0.0 0.0 0.00 0.00 0.00 84 1019.3
20260502024032 6 110 0.0 0.0 0.00 0.00 0.00 83 1019.5
20260502023528 7 110 0.0 0.0 0.00 0.00 0.00 82 1019.2
20260502023026 7 110 0.0 0.0 0.00 0.00 0.00 80 1019.5
20260502022522 7 113 0.0 0.0 0.00 0.00 0.00 79 1019.3
20260502022020 7 113 0.0 0.0 0.00 0.00 0.00 78 1019.2
20260502021517 7 121 0.0 0.0 0.00 0.00 0.00 77 1019.1
20260502021014 7 110 0.0 0.0 0.00 0.00 0.00 76 1019.0
20260502020512 7 110 0.0 0.0 0.00 0.00 0.00 75 1018.8
20260502020008 8 110 0.0 0.0 0.00 0.00 0.00 74 1018.7
20260502015506 8 110 0.0 0.0 0.00 0.00 0.00 73 1018.5
20260502015002 8 111 0.0 0.0 0.00 0.00 0.00 70 1018.6
20260502014459 8 115 0.0 0.0 0.00 0.00 0.00 70 1018.5
20260502013956 9 35 0.0 0.0 0.00 0.00 0.00 68 1018.3
20260502013451 9 251 0.0 4.8 0.00 0.00 0.00 68 1018.3
20260502012948 9 196 0.0 1.6 0.00 0.00 0.00 68 1018.2
20260502012446 9 128 0.0 1.6 0.00 0.00 0.00 67 1018.0
20260502011943 10 128 0.0 0.0 0.00 0.00 0.00 67 1018.0
20260502011439 10 226 1.6 1.6 0.00 0.00 0.00 67 1018.1
20260502010936 10 84 0.0 0.0 0.00 0.00 0.00 68 1018.0
20260502010433 10 83 0.0 1.6 0.00 0.00 0.00 66 1018.0